Simultaneous Nadir Overpasses (SNOs) Predictions

Prediction of SNOs between METOP-A and NOAA-19 Satellite Orbit:

Table of predicted SNOs for the next 14.0 days since TLE Epoch: 5/8/2021
Index Date (METOP-A) Time (METOP-A) Lat,Lon (METOP-A) SZA (METOP-A ) Date (NOAA-19) Time (NOAA-19) Lat,Lon (NOAA-19) SZA (NOAA-19 ) Distance(km) Time Diff (sec)
1 05/11/2021 15:55:19 80.86, -48.95 62.93 05/11/2021 15:54:08 80.85, -49.02 62.91 1.53 71
2 05/11/2021 16:46:01 -80.85, 118.14 117.11 05/11/2021 16:45:05 -80.85, 118.31 117.10 3.17 56
3 05/11/2021 17:36:41 80.85, -74.43 62.90 05/11/2021 17:36:08 80.86, -74.38 62.90 1.04 33
4 05/11/2021 18:27:22 -80.86, 93.00 117.11 05/11/2021 18:27:05 -80.86, 92.95 117.11 1.02 17
5 05/11/2021 19:18:02 80.87, -99.57 62.90 05/11/2021 19:18:08 80.86, -99.73 62.89 3.06 6
6 05/11/2021 20:08:44 -80.85, 67.51 117.14 05/11/2021 20:09:05 -80.86, 67.58 117.13 1.42 21
7 05/11/2021 20:59:24 80.86,-125.06 62.87 05/11/2021 21:00:08 80.86,-125.09 62.87 0.61 44



Historial Predications of SNOs between METOP-A and NOAA-19
